CW9561 Weather Reports


Display with metric or nautical units.
time (UTC)temp
F
wind
direction
speed
MPH
gust
MPH
rain 1hr
in
rain 24hr
in
rain mn
in
humidity
%
barometer
mb
20260503220037 56 281 2.0 0.0 0.00 0.00 0.00 32 1017.6
20260503215028 56 265 1.0 0.0 0.00 0.00 0.00 33 1017.9
20260503213038 55 214 2.0 0.0 0.00 0.00 0.00 35 1018.0
20260503212033 56 13 1.0 0.0 0.00 0.00 0.00 31 1017.8
20260503211028 57 355 0.0 0.0 0.00 0.00 0.00 31 1017.9
20260503210020 57 264 0.0 0.0 0.00 0.00 0.00 30 1018.2
20260503205033 57 291 2.0 0.0 0.00 0.00 0.00 28 1018.3
20260503203028 59 256 1.0 0.0 0.00 0.00 0.00 30 1018.5
20260503202022 58 340 1.0 0.0 0.00 0.00 0.00 31 1018.6
20260503201038 58 249 1.0 0.0 0.00 0.00 0.00 30 1018.9
20260503200030 57 227 0.0 0.0 0.00 0.00 0.00 30 1018.5
20260503195026 56 289 1.0 0.0 0.00 0.00 0.00 31 1018.6
20260503194022 57 257 1.0 0.0 0.00 0.00 0.00 32 1018.6
20260503193036 57 321 1.0 0.0 0.00 0.00 0.00 31 1018.7
20260503192030 54 225 1.0 0.0 0.00 0.00 0.00 34 1018.8
20260503191022 55 331 1.0 0.0 0.00 0.00 0.00 33 1019.2
20260503185034 55 233 0.0 0.0 0.00 0.00 0.00 35 1019.6
20260503184025 55 60 0.0 0.0 0.00 0.00 0.00 33 1019.3
20260503183022 55 196 2.0 0.0 0.00 0.00 0.00 33 1019.6
20260503182036 56 280 1.0 0.0 0.00 0.00 0.00 31 1020.0
20260503181034 56 260 1.0 0.0 0.00 0.00 0.00 30 1019.9
20260503180030 57 242 3.0 0.0 0.00 0.00 0.00 33 1019.8
20260503175022 57 289 2.0 0.0 0.00 0.00 0.00 31 1020.0
20260503174040 56 270 1.0 0.0 0.00 0.00 0.00 31 1020.4
20260503173031 56 209 1.0 0.0 0.00 0.00 0.00 29 1020.5
20260503171022 56 344 1.0 0.0 0.00 0.00 0.00 32 1020.8
20260503131025 41 173 0.0 0.0 0.00 0.00 0.00 57 1021.7
20260503072031 38 296 3.0 0.0 0.00 0.00 0.00 50 1022.4
20260503071022 38 296 3.0 0.0 0.00 0.00 0.00 49 1022.5
20260503054026 39 338 0.0 0.0 0.00 0.00 0.01 49 1022.6
20260503053021 39 338 0.0 0.0 0.00 0.00 0.01 49 1022.5
20260503051031 38 338 0.0 0.0 0.00 0.00 0.01 51 1022.6
20260503050027 40 338 0.0 0.0 0.00 0.00 0.01 49 1022.7
20260503044037 41 338 0.0 0.0 0.00 0.00 0.01 47 1022.9
20260503043030 41 338 0.0 0.0 0.00 0.00 0.01 47 1023.0
20260503040022 42 337 0.0 0.0 0.00 0.00 0.01 47 1022.3
20260503034034 42 337 0.0 0.0 0.00 0.00 0.01 49 1022.0
20260503033025 42 338 0.0 0.0 0.00 0.00 0.01 49 1021.9
20260503031039 42 338 0.0 0.0 0.00 0.00 0.01 48 1021.7
20260503030034 42 337 0.0 0.0 0.00 0.00 0.01 48 1021.6
20260503025028 43 337 0.0 0.0 0.00 0.00 0.01 47 1021.7
20260503024042 44 338 0.0 0.0 0.00 0.00 0.01 48 1021.6
20260503023036 44 338 0.0 0.0 0.00 0.00 0.01 46 1021.4
20260503021030 47 337 0.0 0.0 0.00 0.00 0.01 44 1021.2
20260503020029 48 337 0.0 0.0 0.00 0.00 0.01 42 1021.1
20260503015023 49 338 0.0 0.0 0.00 0.00 0.01 41 1021.1
20260503012033 52 339 0.0 0.0 0.00 0.00 0.01 38 1021.1
20260503011029 53 355 1.0 0.0 0.00 0.00 0.01 36 1021.0
20260503005038 54 314 3.0 0.0 0.00 0.00 0.01 34 1020.6
20260503004030 55 348 1.0 0.0 0.00 0.00 0.01 35 1020.9
20260503003027 56 340 3.0 0.0 0.00 0.00 0.01 35 1020.9
20260503001038 56 12 3.0 0.0 0.00 0.00 0.01 32 1021.0
20260503000030 56 18 2.0 0.0 0.00 0.00 0.01 31 1021.1
20260502235025 56 29 1.0 0.0 0.00 0.00 0.01 28 1021.3
20260502233040 55 54 1.0 0.0 0.00 0.00 0.01 26 1021.4
20260502232035 56 80 1.0 0.0 0.00 0.00 0.01 25 1021.5
20260502231028 56 34 0.0 0.0 0.00 0.00 0.01 27 1020.9
20260502230041 54 34 0.0 0.0 0.00 0.00 0.01 28 1020.9
20260502225037 54 34 0.0 0.0 0.00 0.00 0.01 27 1021.1
20260502224029 55 35 0.0 0.0 0.00 0.00 0.01 26 1021.3
20260502221032 54 51 0.0 0.0 0.00 0.00 0.01 27 1021.4